Orbital Elements
The following orbital elements are taken from MPC 64115:
Epoch 2008 Oct. 21.0 TT = JDT 2454760.5
T 2008 Nov. 2.7088 TT MPC
q 1.723090 (2000.0) P Q
n 0.1511686 Peri. 72.0479 +0.7915995 -0.6061625
a 3.490024 Node 325.1488 +0.4971013 +0.7121823
e 0.506281 Incl. 7.7493 +0.3553315 +0.3540671
P 6.52
From 232 observations 2008 Aug. 25-Nov. 9, mean residual 0".6.
|